Location: Table Mountain
(47.2500°N, 120.5778°W)
Time: 12:31:50
(UTC-07:00)

Envisat - Pass Details

Date: 12 October 2017
Orbit: 764 x 766 km, 98.2° (Epoch: 21 April)

Event Time Altitude Azimuth Distance (km) Brightness Sun altitude
Exits shadow 20:14:45 42° 109° (ESE) 1,083 3.3 -20.3°
Maximum altitude 20:15:52 50° 70° (ENE) 969 3.1 -20.5°
Drops below altitude 10° 20:20:47 10° 356° (N) 2,312 5.7 -21.3°
Sets 20:23:09 0° 351° (N) 3,243 6.5 -21.7°
